GFSNW_prec_cthk_141.txt.gz
RH
36 55 67 62 64 85 99 87 78 89 82 85 77 72 52 47 43 43 44 46 46 47 45 43 47 46 41 37 36 34 36 34 29 29 32 33 40 46 56 65 73 77 80 49
28 52 71 64 60 66 82 98 86 83 86 82 95 85 63 57 60 54 49 48 44 43 47 49 46 43 42 38 33 36 33 35 30 35 38 42 46 50 57 65 73 68 79 49
26 51 68 65 67 64 92 97 97 86 94 75 83 79 67 68 59 51 45 42 45 52 50 42 45 41 40 37 33 29 32 31 28 26 34 39 46 54 59 68 73 64 64 52
28 52 63 71 72 73 95 97 93 69 67 73 69 62 62 62 53 55 52 56 51 45 44 44 43 41 42 37 37 36 38 41 40 40 40 43 48 55 61 66 66 73 62 71
32 51 64 76 76 74 95 95 80 69 65 72 80 71 66 55 63 58 59 49 45 49 43 36 44 38 31 31 36 43 44 52 53 52 49 52 58 62 60 64 75 78 79 81
46 59 70 77 74 91 97 88 72 75 76 79 80 72 66 66 63 58 52 54 49 36 35 37 33 26 29 30 37 44 51 52 53 51 52 55 62 66 64 67 77 83 84 86
59 67 77 77 96 95 96 79 67 75 87 81 72 70 62 60 63 63 51 38 35 39 36 29 24 23 32 35 39 47 52 53 57 58 56 64 67 66 66 72 79 85 90 90
68 77 80 92 96 91 82 69 69 76 84 80 75 65 72 68 58 46 40 44 37 36 28 31 36 43 44 49 51 50 50 54 61 66 65 59 73 71 71 73 84 94 96 90
80 84 88 96 88 78 82 88 78 75 72 69 71 69 61 56 47 57 55 43 38 27 30 32 39 48 45 55 54 54 56 60 64 71 74 70 70 71 72 80 88 95 96 96
94 83 77 75 85 94 90 80 70 71 70 72 65 59 53 50 53 53 44 37 32 26 30 38 40 41 39 47 48 56 58 66 69 71 77 66 72 75 75 88 94 97 98 98
82 87 97 98 96 90 82 77 73 64 67 63 60 60 57 52 36 35 36 30 22 28 33 36 39 41 43 45 43 52 56 64 71 73 80 77 76 77 82 89 97 98 97 97
98 96 95 97 92 90 86 74 67 64 61 69 62 51 39 34 27 26 26 21 19 20 28 32 38 40 43 41 41 50 61 60 66 68 70 79 86 87 91 94 97 97 97 97
92 92 93 94 93 90 82 72 69 61 60 57 49 45 39 33 28 24 21 23 20 18 16 24 29 32 35 41 40 47 50 58 63 70 74 84 86 93 94 95 97 98 95 91
91 91 90 91 87 82 78 72 63 52 46 50 53 41 37 38 30 27 22 21 21 19 17 19 22 25 26 30 30 36 39 53 58 67 72 84 89 93 96 97 96 94 89 86
86 85 86 84 81 70 59 57 53 44 40 49 49 46 36 32 29 27 27 25 22 21 22 23 24 23 25 29 31 34 32 36 46 63 67 76 88 93 94 96 94 90 87 82
79 79 75 68 60 63 62 59 54 39 31 40 46 43 35 33 31 30 29 27 25 22 21 25 25 25 25 32 35 29 35 39 53 61 71 78 86 93 93 93 92 89 85 80
58 55 59 69 71 65 50 38 37 35 30 28 42 46 42 31 31 32 31 27 25 23 25 27 31 35 36 42 42 38 46 53 56 62 73 83 85 91 93 92 88 83 79 74
60 63 67 60 51 44 38 39 37 30 25 27 40 48 45 37 31 30 27 28 31 34 40 42 43 43 43 41 36 40 43 49 56 71 78 81 84 84 85 82 79 75 69 64
53 46 45 40 40 38 37 33 30 24 23 29 35 41 45 39 37 36 37 42 45 48 47 48 51 53 53 47 48 56 60 66 74 79 81 80 77 76 74 73 72 70 69 67
42 39 43 46 48 39 32 29 27 24 24 30 37 36 39 39 40 43 46 48 52 51 49 52 54 53 55 62 68 65 72 77 82 85 87 82 78 76 73 72 72 70 69 66
37 37 46 44 39 34 28 27 27 27 31 35 38 36 39 42 44 49 51 51 50 53 56 60 59 59 62 65 75 78 77 86 91 91 85 81 79 77 75 74 72 69 64 61
41 39 39 40 35 29 28 36 34 33 32 39 42 44 46 49 49 51 52 53 53 53 59 62 59 59 63 64 74 87 93 95 90 86 84 81 78 76 76 76 73 70 65 61
48 38 35 38 43 36 30 39 40 40 36 39 44 53 55 54 48 51 53 53 54 57 60 54 54 58 60 63 73 81 85 83 84 84 83 82 80 80 79 75 71 69 67 65
47 43 48 46 53 47 40 35 32 36 35 38 45 50 54 54 54 54 52 57 58 62 64 58 61 63 64 67 77 79 79 84 89 90 89 86 84 84 83 80 77 74 71 70
55 49 61 63 63 59 53 45 41 41 40 39 42 46 49 52 56 58 58 62 59 57 56 61 64 67 73 82 90 86 88 94 95 92 88 87 87 84 81 80 77 76 76 75
78 65 68 70 72 68 61 55 51 49 45 42 42 47 50 57 58 59 58 58 58 57 61 66 67 72 78 84 90 95 93 92 90 87 85 84 83 81 80 79 76 76 77 77
79 81 75 76 78 76 69 63 61 56 53 56 52 53 56 63 64 63 58 60 59 62 65 65 66 74 80 85 89 91 93 91 87 85 83 81 79 78 77 77 77 78 77 70

GFSNW_prec_cthk_144.txt.gz
RH
28 39 51 66 66 61 72 74 92 95 91 80 72 64 64 57 58 46 39 37 36 35 37 40 40 49 45 40 36 33 31 30 32 31 31 30 35 40 42 45 57 52 55 46
26 29 41 61 66 69 71 74 92 98 98 96 78 63 70 58 53 50 46 43 43 44 43 45 47 50 48 40 35 39 36 35 32 40 40 36 39 41 45 48 52 50 61 51
27 28 34 56 68 81 82 83 87 91 98 91 79 64 72 63 59 55 50 49 50 56 56 55 56 50 48 44 39 35 35 29 27 25 34 35 40 40 42 48 55 51 53 54
26 24 32 47 64 84 88 78 85 83 95 94 76 77 70 72 71 71 64 63 55 52 56 53 53 51 45 43 41 41 38 35 29 26 28 32 33 39 45 51 54 58 51 60
26 22 34 43 55 87 90 81 95 95 85 91 88 75 58 64 64 73 70 64 56 54 53 53 47 40 39 41 48 41 42 45 42 38 36 39 43 44 54 56 55 59 64 68
22 23 33 38 48 83 89 79 91 80 79 90 82 72 66 61 64 67 58 58 62 59 51 42 45 44 42 37 35 40 40 41 44 39 42 46 51 53 57 57 61 70 69 75
25 22 26 32 48 83 87 78 82 80 95 90 73 67 65 70 65 62 70 61 55 53 53 45 38 40 37 40 38 39 40 44 45 46 47 56 59 52 58 61 63 65 73 80
22 21 25 31 63 87 86 80 79 95 91 84 72 60 63 72 73 68 61 60 58 47 38 39 44 49 48 42 43 43 43 44 52 54 46 47 53 56 61 61 61 70 80 82
20 20 27 44 82 85 82 91 94 91 84 64 64 70 74 72 67 66 70 60 48 39 50 50 42 53 36 49 50 48 49 50 55 52 55 55 60 56 58 65 68 77 83 85
21 26 56 81 85 90 98 98 90 80 72 69 70 75 74 65 62 64 62 50 53 48 39 49 42 38 38 49 50 56 55 56 57 56 62 58 61 62 65 70 81 78 86 89
57 70 81 84 92 96 95 86 74 64 74 88 82 73 70 68 59 57 62 55 42 44 45 32 32 35 35 37 40 49 49 52 56 62 69 67 63 67 71 76 77 83 88 89
83 86 88 94 98 94 76 70 71 67 73 79 72 68 63 61 60 53 38 34 32 30 32 31 33 35 37 38 41 42 49 49 57 59 65 63 68 75 77 81 83 86 90 90
94 92 96 99 97 88 84 80 76 71 72 71 74 73 68 58 43 29 34 32 20 19 20 27 31 34 31 39 35 39 41 42 52 57 60 63 69 74 81 87 87 89 90 88
86 87 88 93 94 88 81 74 74 71 72 76 81 67 48 38 40 35 24 16 15 15 18 18 20 24 25 28 26 33 39 41 47 51 60 66 69 76 86 91 90 89 86 83
98 98 97 96 92 84 77 72 71 65 63 74 67 54 49 44 40 27 21 18 18 18 20 21 22 20 22 22 23 26 28 34 40 42 53 61 69 76 88 91 89 89 86 83
97 97 97 92 87 81 76 72 68 56 47 52 63 58 54 45 33 28 25 24 22 21 21 22 21 21 21 25 26 25 24 29 33 45 55 62 70 77 82 90 91 89 84 83
95 94 91 87 83 78 69 61 53 51 48 42 53 54 47 37 34 33 30 27 25 24 25 25 25 26 26 34 32 34 36 41 47 56 56 66 72 76 83 84 86 83 80 76
93 91 85 76 72 68 62 51 48 40 34 37 47 47 40 39 40 37 33 29 28 28 30 32 37 37 39 39 35 37 42 52 57 56 66 72 76 78 79 77 74 72 72 71
79 75 70 68 66 65 59 47 38 34 35 35 40 40 42 36 36 34 31 32 41 40 43 43 44 46 50 47 47 52 48 46 48 68 76 79 78 76 74 73 71 70 71 71
74 76 80 73 57 45 41 38 34 28 29 33 40 39 40 35 34 37 43 46 49 48 45 45 49 49 51 53 56 59 67 71 74 79 83 86 82 80 78 77 76 75 73 69
62 56 55 47 41 39 39 41 37 31 38 36 38 36 32 35 36 43 48 49 46 47 49 52 52 53 57 60 60 64 70 79 86 88 91 89 87 85 83 82 81 77 73 70
42 39 41 39 36 35 36 43 35 30 36 37 37 37 35 42 46 48 49 49 49 51 53 54 53 55 60 60 60 66 77 85 91 94 90 88 86 85 85 83 80 76 71 69
44 41 40 41 36 35 32 37 36 35 36 34 32 39 42 48 48 50 51 50 51 52 52 49 50 53 55 56 62 66 73 78 82 88 88 88 88 87 86 83 78 75 73 71
39 43 47 45 41 38 36 33 30 36 37 34 37 42 50 52 52 52 53 56 55 56 53 50 53 56 56 58 67 75 83 80 82 87 93 92 90 87 84 80 76 74 73 72
42 44 50 52 51 47 43 39 35 38 39 36 38 42 46 47 53 54 55 61 56 51 51 56 58 58 60 67 73 79 84 87 95 94 92 89 87 84 81 78 75 72 71 70
51 54 56 61 62 60 53 47 42 39 39 38 36 39 46 51 51 53 56 51 50 53 56 58 59 60 63 71 75 79 86 90 92 92 89 86 82 79 76 74 73 71 71 70
65 66 67 67 62 62 62 58 53 47 46 47 43 41 47 49 52 55 53 57 55 58 60 61 60 60 64 71 75 79 84 88 90 88 86 84 82 81 80 81 78 76 63 56

GFSNW_prec_cthk_147.txt.gz
RH
40 34 48 70 79 74 73 76 80 94 92 93 77 60 52 50 41 46 47 47 46 45 50 44 43 45 38 38 40 39 38 38 34 31 27 33 32 42 47 48 45 49 48 40
42 34 41 63 80 75 83 81 80 83 86 90 95 69 64 51 54 47 47 52 55 61 61 56 52 48 45 43 42 42 43 32 32 34 39 38 33 36 41 40 41 34 47 44
42 41 36 49 72 84 90 85 89 91 85 79 76 90 85 63 46 45 45 50 54 49 48 48 51 55 55 50 50 49 38 35 33 34 43 44 38 37 39 43 55 47 50 51
48 43 40 41 66 87 93 89 84 78 65 71 92 94 87 71 58 49 52 58 58 56 57 62 57 53 54 57 55 43 37 41 40 31 33 29 33 36 35 38 46 50 47 55
48 42 43 44 51 82 94 89 77 77 70 78 92 97 89 86 72 70 64 66 65 62 63 59 61 68 67 59 46 37 41 56 48 41 28 23 29 32 33 37 47 48 50 54
44 43 42 45 41 69 83 83 90 72 80 81 84 80 85 83 74 72 68 67 68 70 69 68 62 64 55 44 44 51 52 47 44 42 35 41 46 40 43 45 49 53 52 56
39 40 38 39 38 52 72 83 83 84 90 81 68 87 87 82 77 72 69 68 72 66 66 64 63 57 48 51 56 48 46 45 46 45 48 57 54 50 44 44 49 53 50 53
34 37 37 30 35 39 55 82 90 95 94 77 91 83 81 78 76 76 71 67 64 63 61 61 60 64 61 57 56 51 45 44 47 51 51 60 53 44 42 48 54 54 52 59
30 38 32 26 30 42 54 68 91 92 91 71 84 82 84 74 74 71 71 70 67 62 59 59 59 58 48 57 51 41 42 45 53 52 59 52 65 57 44 48 52 57 62 64
28 29 26 28 29 42 51 70 93 92 84 87 88 87 77 73 71 74 76 68 65 63 63 58 51 57 44 58 56 48 49 52 52 54 59 63 58 51 50 63 76 73 65 71
25 25 27 30 30 41 57 87 92 91 90 88 91 81 75 72 75 78 75 69 62 58 53 66 55 52 42 45 44 48 47 53 51 52 78 64 53 52 59 73 70 69 73 74
24 26 30 31 34 45 79 96 99 97 96 92 87 76 73 75 80 75 68 60 48 57 62 55 50 38 40 39 53 42 55 49 59 61 72 64 53 58 62 64 71 76 77 78
25 31 34 35 39 70 93 99 98 95 94 92 85 80 83 79 71 61 57 60 51 44 48 40 36 41 35 39 45 49 41 42 47 50 50 52 54 56 59 67 76 80 80 77
33 33 33 50 83 97 98 97 93 87 80 88 90 84 73 65 62 60 46 40 38 28 27 23 27 28 25 41 44 42 51 40 44 45 47 49 56 58 64 70 79 83 82 80
34 48 81 96 98 96 93 86 82 85 81 84 86 76 73 68 60 38 38 35 23 20 21 23 21 23 20 24 25 32 37 42 47 47 43 44 53 60 67 74 78 85 84 81
91 96 99 98 95 89 83 86 84 79 72 78 85 85 78 58 50 46 31 26 23 26 27 22 23 24 24 27 26 31 31 33 39 40 41 46 52 62 70 75 79 80 81 80
98 97 95 93 88 83 80 80 78 77 71 74 78 66 63 58 46 34 28 25 28 28 25 26 26 21 23 30 29 34 34 38 38 47 45 50 56 63 71 75 77 76 72 67
97 94 91 89 85 80 78 73 72 68 68 64 66 70 59 50 40 38 35 32 29 29 30 26 32 31 34 40 36 36 42 46 50 51 54 58 66 70 73 73 71 70 69 68
93 89 88 86 82 77 74 64 58 55 56 59 55 55 51 43 46 39 38 35 36 33 37 40 40 45 46 44 42 49 53 51 54 53 53 68 76 79 79 77 75 74 74 72
88 85 79 77 75 66 55 52 50 47 48 48 45 36 39 39 38 40 37 38 42 44 46 41 46 54 49 47 50 54 58 60 62 64 77 81 84 89 88 84 81 81 78 75
83 80 82 76 64 58 54 50 50 47 57 47 44 34 34 36 37 41 43 48 47 50 46 49 48 50 50 53 57 58 60 64 72 81 90 92 92 90 88 85 85 84 81 76
75 73 71 66 57 52 46 50 43 43 41 40 40 38 37 40 38 43 48 47 49 53 49 50 51 57 52 55 56 57 58 64 73 80 89 95 93 89 89 89 87 86 81 71
66 61 55 53 45 47 51 49 43 44 42 39 38 41 35 38 42 47 47 50 53 46 54 51 57 50 48 49 54 57 61 69 72 73 77 83 89 95 91 89 85 79 76 71
49 46 50 51 47 45 48 43 40 36 34 36 37 36 40 43 47 48 53 53 52 58 56 53 53 48 50 53 54 55 63 69 70 74 79 85 85 82 80 77 75 72 71 67
44 46 52 53 52 52 51 41 35 37 37 37 36 38 41 46 52 52 54 60 61 54 57 60 54 51 53 56 59 61 67 70 75 80 83 84 84 82 78 72 70 68 68 68
49 56 57 59 56 54 50 48 45 44 44 40 34 40 47 48 48 53 51 51 52 55 62 56 54 54 54 56 60 63 65 71 76 80 82 82 81 80 78 76 74 74 73 62
61 66 66 65 61 56 53 51 48 45 46 43 39 43 49 46 47 47 47 56 60 58 57 57 55 54 54 54 58 62 67 73 78 80 82 82 82 81 84 84 81 57 39 35

GFSNW_prec_cthk_150.txt.gz
RH
56 48 34 36 51 59 64 86 89 85 98 94 77 78 58 55 66 65 57 41 36 42 42 51 40 41 46 42 41 48 46 41 43 39 34 30 34 37 40 51 50 44 46 41
70 57 48 37 55 67 67 82 88 88 95 98 83 59 62 60 58 56 50 41 38 46 52 52 53 44 49 42 48 49 48 43 44 40 40 39 35 29 33 51 54 53 49 34
76 65 53 42 53 68 78 90 96 92 84 94 88 87 68 64 57 50 36 38 43 48 46 47 52 59 57 51 52 50 49 43 44 43 42 46 51 43 40 49 56 43 48 47
86 72 62 52 49 70 83 96 98 75 76 72 79 83 98 79 68 56 47 42 45 48 51 54 50 61 53 51 50 49 44 46 47 41 38 39 44 48 38 44 44 46 41 45
79 72 66 57 54 72 92 97 98 84 86 90 81 92 88 82 66 62 63 56 55 50 47 48 55 64 60 62 54 49 49 61 61 54 38 35 35 30 34 32 38 38 39 53
78 76 68 60 57 66 86 94 97 88 79 89 91 78 77 80 78 68 65 66 68 62 64 66 67 67 67 63 65 64 61 54 52 47 40 39 39 30 27 29 41 49 47 45
66 72 68 61 57 48 70 86 94 98 84 79 76 72 82 74 73 78 81 84 82 76 73 68 63 63 64 70 67 58 53 52 62 53 54 56 39 43 41 46 48 44 39 46
64 65 62 61 54 46 66 83 95 99 92 79 77 83 82 88 92 95 86 81 77 70 69 69 75 70 64 63 59 60 61 57 52 58 55 49 52 47 48 45 39 39 43 46
63 60 56 56 51 50 53 76 93 95 99 90 84 82 86 94 98 83 77 71 71 74 73 71 68 76 68 70 68 63 61 60 67 57 51 54 62 64 56 44 39 39 50 53
60 54 49 46 50 52 52 65 87 98 99 94 86 86 89 85 79 81 80 79 79 72 67 70 65 62 60 66 65 63 59 57 63 52 64 56 59 54 57 50 53 61 66 60
50 49 36 36 47 47 53 61 72 96 98 92 91 91 92 88 80 78 76 77 71 67 71 74 65 61 60 60 62 67 61 54 51 47 55 63 59 57 52 54 57 59 58 63
35 28 29 39 47 44 49 58 61 92 96 98 93 85 84 87 85 78 74 71 71 75 79 72 68 58 65 62 74 53 53 48 49 54 52 54 59 62 55 54 56 55 60 67
29 28 33 40 47 44 52 55 61 86 98 97 95 94 92 87 84 74 70 76 71 70 67 59 64 69 61 48 50 54 46 45 49 59 61 62 61 55 50 53 56 59 64 72
30 33 34 37 37 41 53 56 82 97 97 98 97 93 90 86 77 76 69 72 65 60 62 69 63 50 35 43 43 49 53 47 44 44 43 49 46 47 50 52 58 64 69 73
30 33 34 38 40 41 52 73 97 98 95 94 95 92 89 83 79 76 70 66 59 59 54 48 34 31 25 34 35 49 51 47 50 49 42 43 47 48 50 53 59 67 70 75
34 36 42 42 41 43 67 99 99 98 93 91 97 91 80 74 70 61 56 51 40 43 39 32 28 24 25 27 23 27 33 38 47 48 42 47 46 45 49 54 62 66 70 73
40 43 44 42 48 72 97 90 86 91 87 86 91 96 89 79 70 66 46 46 48 38 29 27 25 17 23 27 30 34 32 37 36 46 46 46 47 48 55 59 65 67 70 71
43 47 57 72 98 98 94 91 89 84 87 85 94 94 87 82 69 58 55 43 36 33 29 26 32 26 28 34 41 40 36 41 47 46 49 51 49 57 63 68 70 71 72 73
53 79 98 98 97 94 92 87 88 84 80 83 85 86 84 71 71 54 46 37 36 33 37 35 35 38 39 44 38 40 44 49 53 48 50 53 53 65 73 79 83 83 81 80
97 97 93 93 89 88 88 85 73 73 76 77 71 60 64 65 47 43 41 42 37 36 44 40 41 58 45 42 44 47 51 55 55 55 57 61 72 84 86 84 83 79 81 81
92 87 86 87 82 81 76 73 72 74 78 72 70 57 40 45 40 39 39 46 44 49 45 44 42 55 48 45 47 50 51 52 55 60 68 74 83 85 89 89 88 89 88 86
85 78 83 81 74 66 67 69 70 71 72 69 57 42 45 41 39 41 42 41 48 57 45 46 50 55 51 48 49 50 49 50 52 59 68 74 80 89 95 95 92 88 83 76
76 70 65 62 58 60 62 67 70 69 63 52 44 48 43 44 37 41 41 45 50 43 47 47 61 59 48 46 46 47 50 53 58 62 66 70 72 75 81 80 77 75 69 65
69 69 70 71 64 66 78 61 54 55 49 47 46 42 44 40 39 44 46 49 47 53 55 56 56 50 43 46 48 49 50 53 58 63 67 71 76 77 76 75 73 69 67 65
66 64 67 69 66 67 65 60 56 47 39 41 40 37 34 36 46 46 47 55 57 53 58 63 53 45 46 48 49 49 52 56 60 64 70 74 77 77 74 71 70 68 68 68
67 71 67 70 72 70 62 57 52 48 44 40 31 34 38 44 45 50 51 51 53 58 63 59 50 47 48 50 49 49 54 57 60 67 72 74 74 75 73 73 73 71 53 31
67 73 72 69 65 63 60 56 52 50 45 38 33 38 44 44 45 46 48 59 65 60 59 52 51 49 49 49 47 48 54 60 66 71 73 75 76 77 77 71 54 37 30 29